Wind_Speed
45 45 46 46 46 46 45 43 42 41 41 41 41 41 40 39 37 35 34 32 31 29 28 27 26 24 23 23 22 20 19 18 18 17 17 16 15 15 15 14 14 14 13 12 12 12 11 11 11 11 11 12 10 10 10 11 11 10 9 8 8 8 9 10 12 10 6 6 8 9 10 11 13 13 14 15 14 15 18 20 21 22 23 23 23
46 44 44 45 47 47 46 45 44 43 42 42 41 41 41 40 39 38 36 34 33 31 30 29 28 27 25 24 23 22 20 19 19 18 18 18 17 17 16 16 15 15 15 14 13 13 13 12 12 11 11 11 11 11 11 11 12 11 10 9 8 9 10 11 13 14 11 8 8 9 9 10 11 11 12 15 16 16 18 19 19 20 20 20 21
46 44 43 44 46 47 47 46 45 44 43 43 42 41 41 40 39 39 38 37 35 33 32 31 30 29 28 27 25 24 22 21 20 20 19 19 19 19 18 18 16 16 15 14 13 13 13 13 12 11 11 12 12 12 12 12 12 12 11 10 11 11 12 13 14 16 16 13 11 11 11 12 13 13 14 16 16 16 17 17 17 17 17 18 19
46 45 43 43 45 47 48 47 47 46 45 44 43 41 40 39 39 40 39 38 37 35 33 32 32 31 30 30 28 27 25 23 22 22 20 19 19 19 19 19 19 17 16 15 14 14 14 14 13 12 12 13 13 13 13 13 13 13 13 13 14 15 14 15 16 17 18 18 16 14 15 16 16 16 16 16 17 17 18 18 18 17 17 18 19
46 45 43 42 44 47 49 49 48 48 46 45 43 42 40 39 39 39 40 39 38 36 35 34 33 33 32 32 30 29 27 25 24 24 22 21 20 19 19 19 20 19 18 16 15 16 16 15 14 14 14 15 15 15 15 14 14 14 15 15 16 17 17 18 19 19 19 20 19 18 18 18 18 18 17 18 20 20 20 19 18 18 19 20 19
45 43 42 41 43 46 49 50 50 49 48 46 44 42 41 40 39 39 40 40 39 37 36 35 35 34 34 33 32 30 29 27 26 25 24 23 22 21 20 19 19 20 19 19 18 17 17 16 16 16 16 17 17 16 16 15 15 15 16 16 16 16 17 18 18 18 19 20 21 20 20 19 20 20 19 19 21 22 21 20 19 19 21 21 20
44 43 42 41 42 45 49 51 51 51 49 47 45 43 42 41 40 39 39 39 39 38 37 36 35 35 34 34 33 31 30 29 28 27 26 25 24 23 22 21 20 19 19 19 19 19 18 17 17 17 18 18 18 17 17 17 16 16 16 16 15 15 15 15 16 17 19 20 21 21 21 21 22 22 22 21 22 21 20 20 21 21 19 20 21
45 44 43 43 42 45 48 51 51 51 50 48 46 44 43 42 40 39 39 39 39 39 38 37 36 35 35 34 33 32 31 30 30 29 28 27 26 25 24 22 21 20 20 20 19 19 18 18 17 17 18 19 18 18 18 18 18 18 17 16 15 15 15 15 16 18 19 20 21 22 22 23 23 24 24 23 22 20 18 19 22 22 20 20 22
46 44 44 46 45 45 47 49 50 51 50 49 47 46 44 43 41 40 39 39 39 39 39 37 36 36 35 34 34 33 33 32 31 30 29 28 28 27 26 24 23 22 21 20 20 19 18 17 17 16 17 17 18 18 18 18 18 18 17 16 16 16 17 17 17 18 19 21 22 22 24 25 25 25 25 24 22 20 17 18 22 23 22 22 24
46 45 46 48 47 45 46 48 50 51 51 50 48 47 45 43 42 41 40 39 38 39 39 39 38 36 35 35 34 34 34 33 33 32 30 29 29 28 28 26 25 23 22 21 21 20 18 17 17 16 16 16 16 16 15 15 16 16 16 16 17 17 18 18 19 19 20 23 24 24 25 27 26 26 27 26 23 20 18 20 23 24 25 28 30
46 46 48 49 47 45 45 48 50 50 51 51 49 47 46 44 43 42 41 39 38 38 39 40 40 38 36 35 34 34 34 34 33 32 31 30 30 29 29 28 26 26 24 23 22 21 20 19 18 17 17 17 17 16 16 16 17 17 18 18 18 18 19 20 21 22 23 24 25 25 27 28 27 27 28 28 25 23 23 24 26 27 28 31 33
46 48 47 47 46 47 46 47 49 51 51 52 50 48 47 46 44 43 42 41 39 38 39 41 41 39 38 36 35 34 33 32 32 32 31 31 30 30 30 29 28 27 26 25 24 22 21 21 20 19 18 17 18 19 20 21 21 21 21 21 21 21 21 21 22 22 23 24 25 26 27 28 28 28 28 28 28 28 28 27 27 28 28 29 29
39 45 48 47 47 47 47 47 49 51 51 51 50 48 47 47 46 45 44 42 40 39 39 40 41 40 39 37 36 34 32 31 30 30 29 29 29 29 29 29 29 28 28 27 26 25 24 23 22 21 20 18 19 20 22 23 23 24 24 23 23 23 22 21 21 22 23 24 26 26 26 27 27 26 24 25 26 26 26 25 24 24 23 23 23
33 35 40 46 48 48 48 48 49 50 51 51 50 49 49 48 47 46 45 44 43 41 40 39 40 41 40 38 37 36 33 31 29 28 27 27 27 28 28 28 29 29 29 28 28 27 26 25 25 24 22 21 21 21 22 22 22 23 23 23 23 23 23 23 23 23 24 25 26 27 25 25 25 24 21 20 22 22 22 21 20 20 20 20 21
39 36 35 40 47 49 49 48 49 50 50 50 50 50 50 49 48 47 46 45 45 43 42 40 40 40 41 40 38 37 35 32 30 28 26 26 26 28 28 29 29 29 29 29 29 29 28 27 27 26 25 24 23 23 24 24 24 25 25 26 25 25 25 25 25 25 25 25 27 27 26 23 23 23 21 19 19 19 18 18 19 19 19 20 20
44 44 42 42 46 51 51 49 49 50 50 50 50 50 50 50 49 48 46 46 45 44 43 42 40 40 41 41 40 38 37 34 31 29 26 24 25 27 28 29 29 29 29 29 30 30 29 29 28 28 27 26 24 23 24 25 27 28 29 29 29 28 27 26 26 26 26 26 27 27 26 24 23 22 21 19 18 17 16 17 18 17 18 20 20
45 49 49 47 48 52 53 51 50 50 51 51 51 51 51 50 50 49 47 46 46 45 45 44 42 40 40 41 42 40 38 36 33 31 28 26 25 25 26 27 28 29 29 30 31 31 31 30 29 29 29 28 26 24 23 24 26 28 30 30 30 30 29 27 27 27 27 27 27 27 27 26 24 23 21 19 17 15 16 19 18 16 17 20 20
44 47 50 48 48 52 54 53 52 51 51 52 52 51 51 50 50 50 48 47 46 45 45 44 43 41 40 41 42 41 39 37 35 33 31 28 26 25 25 25 25 27 28 30 32 33 33 32 31 31 31 29 28 27 25 25 26 27 28 28 29 30 29 27 27 28 28 28 29 29 28 28 26 23 21 20 18 17 19 20 17 16 18 19 19
43 46 48 46 46 52 55 54 53 52 52 52 52 51 50 50 49 50 49 48 45 44 44 43 43 42 41 41 41 42 41 39 37 35 33 30 29 27 27 26 26 26 27 28 30 32 34 34 34 34 33 32 31 30 30 29 30 30 29 29 31 32 30 28 29 30 30 30 30 30 30 29 26 24 22 20 19 19 20 19 16 16 18 18 18
42 44 47 45 45 51 56 55 53 53 52 51 51 51 50 49 48 49 50 48 45 43 43 43 43 43 42 41 41 41 42 41 40 38 35 33 32 30 30 30 29 29 28 28 28 29 31 33 34 34 34 34 33 33 34 34 34 33 33 33 34 33 31 30 31 31 31 31 31 31 31 29 26 25 23 22 21 21 20 18 16 17 18 19 19
42 43 44 46 47 51 55 54 53 53 51 50 50 50 49 49 48 48 49 49 47 44 42 42 42 42 42 42 41 41 41 40 41 40 39 37 35 33 33 33 32 31 31 30 30 29 29 29 29 30 31 31 32 33 35 36 36 36 37 36 36 34 33 33 33 32 32 33 32 32 31 29 28 26 24 23 22 21 19 18 18 19 20 22 21
43 45 44 45 46 49 52 53 52 51 50 49 49 49 48 48 48 47 48 49 48 47 44 42 41 42 42 42 42 41 40 39 38 38 38 38 38 37 37 36 34 33 33 33 33 31 29 27 26 25 26 27 28 29 31 33 34 36 36 35 34 33 33 33 32 32 33 33 33 32 31 30 28 27 26 24 22 21 20 19 19 21 23 22 21
42 47 45 44 45 46 49 51 50 49 49 48 49 48 47 47 47 46 47 48 49 48 46 44 42 41 41 41 40 40 39 38 37 36 35 35 36 36 37 36 35 34 35 35 33 30 28 27 25 24 24 24 25 25 26 27 29 30 30 29 29 29 29 30 30 30 31 32 32 33 33 31 30 28 27 25 23 22 22 22 23 24 24 22 20
40 45 46 45 45 46 48 50 49 48 48 47 47 47 47 47 46 46 47 47 48 49 48 46 44 42 41 40 39 37 36 36 35 33 32 31 31 31 32 33 32 32 33 33 30 29 28 27 26 25 25 25 25 25 26 26 27 27 26 25 24 24 26 27 28 29 30 31 32 33 34 33 32 30 29 27 27 26 26 26 26 26 24 22 21
39 43 45 46 46 47 48 49 48 47 47 47 47 46 46 47 46 47 47 47 48 50 50 49 47 44 42 40 39 37 35 33 33 32 30 29 27 26 27 28 28 29 30 30 28 28 28 27 27 27 28 28 28 28 28 27 27 26 24 23 23 23 24 25 26 27 29 30 31 32 33 32 31 29 28 28 28 29 29 28 27 25 23 22 22
40 42 45 47 49 49 49 48 47 46 46 45 46 46 46 47 47 47 47 48 49 50 50 50 49 47 44 42 40 38 35 34 33 32 30 28 27 26 26 26 27 27 27 27 28 28 29 29 29 30 30 30 30 29 28 27 26 25 24 23 23 24 24 24 25 26 27 28 28 29 29 28 26 24 23 23 23 24 25 25 24 22 21 21 22
41 42 44 47 49 50 49 47 45 45 44 44 44 44 45 46 47 48 48 48 50 50 50 51 51 50 48 45 42 39 37 35 34 32 31 30 30 29 28 28 28 28 28 28 28 29 31 31 32 33 32 31 30 29 28 27 27 26 26 26 26 26 26 26 26 26 26 27 27 27 26 24 22 21 19 18 18 19 20 20 19 20 20 21 21
39 42 45 48 50 50 49 47 45 44 43 42 42 43 44 46 48 50 50 50 51 51 52 52 52 52 51 49 45 42 40 38 37 36 35 34 33 32 31 30 30 30 30 29 29 30 32 34 35 34 33 32 31 31 31 31 30 30 29 28 28 27 27 27 27 27 27 27 27 27 26 23 21 19 18 17 17 18 18 18 18 21 23 22 20
35 41 47 49 49 49 47 45 44 42 41 41 42 42 43 45 47 48 49 51 51 51 52 53 52 51 51 49 48 47 45 44 42 41 40 38 36 34 33 30 29 29 27 26 27 30 33 34 35 34 33 33 33 33 32 32 32 32 32 31 29 28 28 28 28 28 27 27 27 26 24 22 20 18 16 16 17 18 19 19 20 23 24 22 18
37 44 50 49 48 48 47 44 43 42 41 41 41 42 43 45 46 47 48 50 51 51 50 50 49 47 47 47 46 45 44 42 43 43 42 39 37 35 32 29 27 25 22 21 25 29 31 32 33 33 33 34 34 33 33 32 32 32 32 32 31 30 29 29 29 27 25 23 22 19 17 17 18 18 17 18 20 21 21 20 21 24 25 20 16
38 43 47 47 46 46 45 43 42 42 41 41 40 41 44 45 45 46 47 49 50 49 49 47 46 45 44 44 43 42 41 39 40 40 40 39 36 34 31 28 26 23 20 19 23 26 28 30 31 32 32 34 34 34 34 34 33 33 32 31 31 30 29 29 28 26 23 21 19 16 14 15 18 19 19 20 21 20 19 19 20 22 21 16 13
33 38 41 45 46 46 45 42 40 39 39 40 40 41 44 45 45 45 47 48 48 47 47 45 44 42 42 41 40 40 39 37 36 36 36 35 33 31 29 27 24 22 20 20 21 23 25 27 29 30 31 33 33 33 34 35 35 34 32 30 29 27 25 25 24 23 23 21 18 17 16 17 19 21 22 22 20 18 16 17 17 17 16 13 14
28 35 40 43 45 46 46 44 42 40 38 39 41 43 44 46 47 47 46 45 44 44 44 43 41 39 38 37 37 36 35 33 31 30 29 28 27 27 26 24 22 21 21 22 23 23 24 26 27 28 29 31 31 32 34 35 35 34 32 30 27 25 23 22 22 23 23 22 20 20 20 20 23 24 24 23 21 18 17 16 14 14 13 14 15
26 30 35 40 42 44 45 45 44 43 41 40 42 43 45 47 48 47 46 44 42 42 42 40 38 36 35 34 33 32 31 29 27 24 24 23 22 22 23 23 22 22 23 24 25 25 25 25 26 26 27 28 29 31 32 32 32 32 30 27 24 22 22 22 24 26 26 24 22 22 21 22 24 25 25 23 20 18 18 16 15 13 13 12 12
28 26 25 30 35 36 37 39 41 42 42 41 41 41 42 46 48 47 46 45 42 41 41 39 35 34 33 32 31 30 29 28 25 23 23 23 22 22 23 23 23 24 25 25 26 25 24 24 24 24 24 24 26 27 28 28 28 26 24 22 20 22 24 25 26 27 27 26 24 23 24 23 22 22 22 19 17 17 16 15 13 12 11 11 11
26 26 19 19 26 30 30 33 35 37 38 39 41 40 37 41 47 48 46 44 40 37 38 39 36 34 33 31 30 30 29 28 26 24 23 22 22 23 24 24 24 25 26 26 25 24 24 23 23 22 22 23 23 23 24 24 23 22 21 20 21 23 25 27 27 26 27 27 25 24 24 23 20 18 18 17 18 19 17 15 13 12 13 15 14
17 21 20 20 24 26 26 27 30 34 35 35 39 38 32 32 38 42 40 39 39 37 36 37 36 34 34 32 30 29 28 26 25 24 22 21 21 21 22 22 22 23 24 24 24 23 23 21 20 20 22 23 23 22 21 19 19 20 21 23 24 25 25 27 28 28 27 27 25 24 23 21 18 17 18 20 22 21 17 14 12 11 13 16 16
3 10 16 21 24 23 23 24 27 31 33 33 36 36 29 22 25 32 34 36 39 38 36 35 34 34 35 33 30 28 27 25 25 24 22 21 20 19 20 20 20 21 22 22 22 20 19 18 19 21 21 22 22 22 20 18 18 20 22 24 25 25 24 24 25 26 25 24 24 23 22 20 19 19 20 21 23 20 16 15 13 13 14 16 16
8 2 5 14 20 22 23 24 23 23 24 25 25 27 26 23 25 30 32 34 36 36 35 35 35 35 34 32 30 29 27 26 24 23 22 20 19 19 20 20 20 21 20 18 17 16 16 17 20 22 22 21 22 21 20 20 21 22 24 24 25 26 25 24 24 24 23 22 22 22 20 18 18 20 20 22 23 21 18 16 17 17 16 17 16
14 9 4 8 15 18 20 21 20 17 15 13 11 12 17 23 29 32 33 33 34 34 33 33 33 32 30 29 28 27 26 25 23 22 21 20 20 21 22 22 23 22 21 19 19 18 18 19 20 21 21 21 21 21 21 22 23 24 24 24 24 24 23 22 21 20 20 21 23 22 19 16 17 19 21 22 22 19 16 17 19 18 16 16 14
18 15 13 12 14 17 17 17 17 15 12 12 14 15 17 22 28 32 33 33 32 32 30 29 28 26 24 23 23 22 22 22 21 20 20 20 21 22 23 24 24 24 23 22 22 21 20 20 20 21 22 22 22 22 21 21 22 24 25 24 20 18 18 17 16 17 18 19 18 16 15 15 18 20 20 20 18 15 15 17 17 15 14 14 13
17 19 20 21 22 23 21 19 18 17 16 18 20 21 22 25 29 33 33 32 31 30 28 26 25 23 21 20 19 18 16 16 16 16 17 18 18 20 21 21 21 21 19 18 18 19 20 21 20 20 22 22 22 22 21 20 21 22 22 20 17 14 14 13 12 13 14 12 11 12 15 17 19 18 17 16 15 13 13 16 15 13 13 13 12
14 17 19 22 25 28 29 28 26 24 24 25 29 32 33 35 35 36 35 33 32 31 29 27 25 23 21 19 17 15 13 14 15 15 16 17 17 17 18 18 17 17 16 16 15 16 19 21 21 21 21 21 20 19 20 20 19 17 16 15 14 13 13 12 12 11 11 11 12 12 12 12 13 13 12 13 13 12 11 14 15 13 12 13 12
13 15 17 19 21 24 25 26 27 28 30 32 35 38 39 38 37 36 34 32 31 30 29 27 24 21 20 18 15 15 16 17 17 16 16 16 16 16 16 15 15 15 15 15 15 15 16 17 19 20 20 18 16 15 14 13 12 13 15 15 15 14 14 13 12 12 13 14 14 12 10 10 12 13 12 12 13 13 13 14 15 15 14 13 12
13 14 16 17 18 20 21 20 20 21 24 27 30 33 34 34 33 31 29 28 27 25 24 23 21 19 18 17 15 15 17 18 18 17 17 16 15 15 14 14 14 13 13 13 13 13 12 12 13 13 12 10 9 8 7 6 7 10 13 13 13 12 12 12 12 13 15 15 15 14 15 16 17 17 15 14 14 15 15 15 15 15 14 12 11
13 14 16 16 17 18 19 19 18 17 18 19 22 24 26 27 27 26 25 23 22 21 20 19 17 16 15 15 15 15 16 17 17 17 16 14 14 13 12 12 11 11 10 10 9 8 7 7 6 6 6 6 6 7 8 9 11 12 12 12 12 12 13 14 15 15 16 16 15 17 18 19 19 18 18 16 15 15 15 15 15 15 15 14 13
12 15 16 17 18 17 18 18 18 18 19 20 20 21 21 21 21 21 20 19 18 17 17 15 14 13 13 13 14 15 15 15 16 15 14 13 12 12 11 10 9 9 9 8 7 7 6 6 6 6 6 7 8 9 11 12 13 13 13 13 12 13 14 16 17 17 17 17 17 17 18 18 18 17 17 16 14 14 14 14 15 16 16 16 16
10 13 14 16 16 16 16 17 18 18 20 21 22 21 20 20 20 20 19 17 15 14 13 12 11 12 12 12 12 12 13 13 13 13 12 12 11 11 10 9 8 8 8 8 9 9 9 9 9 9 10 11 12 12 13 14 14 13 13 13 13 14 16 16 16 15 15 16 16 16 16 17 16 15 15 15 15 15 15 15 15 15 15 16 16
8 11 14 15 16 16 16 16 16 17 18 19 20 20 19 18 18 18 17 16 15 13 11 11 10 10 10 10 10 10 11 11 11 12 12 11 11 11 10 9 8 8 8 8 9 10 10 10 11 11 12 13 13 13 14 14 13 13 13 13 13 14 14 14 13 12 12 13 13 13 14 15 15 14 14 14 14 15 15 15 15 15 16 16 16
9 10 12 14 15 16 16 16 17 17 17 16 17 18 18 18 18 17 16 15 15 14 13 13 13 12 12 12 11 11 11 10 11 11 12 12 12 12 11 11 11 11 10 10 10 10 10 11 11 12 12 12 12 12 12 12 12 12 12 11 11 11 11 11 10 10 10 11 13 13 13 13 14 14 13 14 14 14 15 16 16 17 18 18 18
12 12 12 13 14 14 14 15 16 18 17 16 16 17 18 18 18 17 16 15 16 16 16 16 15 15 16 15 14 13 12 12 12 13 13 13 14 14 13 13 13 13 12 12 12 11 11 11 11 10 10 10 10 10 10 10 9 9 8 8 8 8 8 9 10 11 12 13 16 16 15 15 15 15 15 16 17 17 17 17 18 19 19 20 20
Wind_Direction
212 214 215 216 217 218 219 220 222 222 223 224 225 226 227 229 230 231 230 230 230 229 229 229 229 228 229 231 232 231 227 226 228 228 229 231 230 229 230 226 223 223 225 228 230 230 233 238 240 238 235 235 237 235 231 237 248 257 265 268 275 286 286 284 286 281 258 243 249 251 258 271 279 286 296 304 309 309 308 310 313 315 318 320 321
212 215 217 217 218 219 220 221 222 223 223 223 225 226 227 228 230 231 231 230 229 228 228 229 231 231 231 233 235 234 230 226 227 229 230 232 231 230 230 229 228 226 225 227 232 235 235 238 241 239 237 238 238 239 238 240 249 257 261 266 274 285 292 291 290 290 282 269 274 280 282 290 298 307 312 314 316 314 311 313 315 316 319 322 322
213 215 217 219 220 220 221 221 221 222 222 223 225 225 226 227 228 229 230 230 229 228 227 227 230 231 232 234 236 237 235 229 226 229 231 233 232 230 229 230 232 231 228 226 228 235 239 241 242 240 239 241 241 243 244 245 251 255 254 261 269 274 281 284 286 291 294 296 299 304 310 313 313 318 319 317 318 316 315 318 320 322 325 326 326
213 215 217 220 221 220 220 220 220 221 222 223 224 225 225 226 226 227 228 229 229 229 227 226 228 230 231 233 235 237 237 233 229 229 232 234 233 232 231 231 234 235 235 232 228 230 236 240 241 240 240 244 248 251 252 251 253 256 253 253 258 263 269 275 281 289 296 300 306 312 316 316 316 320 321 321 322 321 322 327 329 330 332 331 329
213 215 217 219 219 219 220 219 219 220 222 223 224 224 225 225 224 225 225 226 228 228 227 225 226 228 230 233 235 236 237 236 232 231 233 235 235 235 235 233 233 236 238 239 235 232 234 239 241 242 241 245 252 256 259 259 257 256 255 251 251 255 259 265 273 281 287 293 302 309 312 313 315 320 323 323 324 325 329 332 331 331 331 331 330
212 214 215 216 217 218 219 219 219 220 221 223 224 224 224 224 223 223 223 224 224 226 227 226 225 227 229 232 235 235 236 236 234 233 233 236 238 239 238 236 235 236 237 239 241 239 239 240 241 243 244 246 251 255 259 262 262 259 258 256 255 255 257 260 266 272 278 286 296 303 307 311 314 319 324 323 322 325 329 329 327 328 330 328 328
211 212 214 215 217 218 218 219 220 220 221 223 224 223 223 223 223 222 222 222 222 222 225 226 226 227 228 231 234 235 236 235 234 234 234 235 238 240 241 240 239 238 239 240 242 244 246 247 246 245 245 246 248 251 256 260 262 262 260 259 260 259 259 262 265 271 278 285 293 299 305 311 313 317 322 321 318 322 325 322 321 324 325 321 321
212 212 213 215 218 218 219 220 219 220 221 222 222 222 222 221 222 223 222 222 222 221 223 225 227 228 229 231 233 234 235 234 233 233 234 235 238 240 241 242 242 242 243 243 243 245 247 250 250 248 246 247 248 250 253 255 257 259 261 261 261 260 262 266 269 273 279 285 292 299 304 308 310 314 317 315 314 319 320 314 314 317 316 313 314
214 213 212 216 220 219 218 219 219 219 219 220 221 221 221 220 220 222 222 222 222 221 222 225 227 228 229 230 231 233 233 233 233 234 234 235 237 239 241 243 244 246 247 247 246 245 245 246 249 250 248 248 249 250 252 253 254 257 259 260 261 261 264 268 271 277 282 287 293 298 301 303 307 311 312 311 312 316 316 309 307 308 307 304 304
214 214 214 217 219 219 218 218 218 218 219 220 220 220 221 219 218 219 222 223 222 220 220 223 225 227 229 229 229 231 232 233 234 235 236 238 239 241 241 243 245 246 249 250 249 247 247 247 249 252 252 250 250 250 252 254 257 261 263 263 263 263 265 269 274 280 284 287 292 296 297 301 307 309 308 309 310 308 304 301 300 301 301 299 300
216 216 216 217 218 218 218 218 218 218 219 220 221 220 219 219 217 218 221 223 223 220 218 220 223 226 228 230 230 230 232 233 234 235 237 239 240 242 243 244 245 246 248 250 252 252 251 251 253 255 255 253 250 251 255 259 261 264 266 266 265 265 267 271 276 281 284 286 290 293 294 298 306 308 305 304 303 299 298 298 298 298 298 298 302
221 221 219 217 218 218 218 218 218 218 219 220 221 219 217 217 216 216 219 222 223 221 218 217 221 225 227 229 231 232 233 234 235 235 236 238 240 242 244 245 245 247 249 250 253 255 254 254 255 257 258 255 250 249 252 255 258 260 264 266 268 269 270 272 276 280 282 284 288 291 292 297 302 305 304 302 300 298 298 297 297 296 297 298 304
227 226 223 220 219 219 219 219 219 219 219 220 220 219 216 215 216 216 217 220 222 222 220 217 218 222 226 228 231 233 235 235 235 236 236 237 239 241 243 245 246 247 249 251 252 254 255 255 255 256 259 258 254 250 249 251 254 257 260 264 266 267 269 271 275 279 282 284 286 289 293 297 298 301 303 300 297 296 296 295 295 295 297 302 309
234 233 227 222 221 220 220 220 220 220 220 219 219 219 217 215 216 216 215 217 219 221 222 219 217 219 225 228 231 234 236 237 236 236 235 235 237 239 241 243 245 247 249 251 252 254 255 257 257 258 258 258 256 254 253 254 256 258 261 263 266 268 271 273 277 281 283 285 286 289 294 296 295 299 302 297 293 293 294 294 295 298 304 310 314
229 232 230 224 221 221 222 222 222 220 220 219 219 219 218 216 215 215 214 215 218 221 222 221 218 218 221 227 231 234 237 239 239 237 236 235 235 237 239 241 243 245 247 250 252 254 256 258 259 260 259 258 256 252 251 252 255 258 261 264 268 272 274 276 279 281 284 286 287 290 293 294 293 297 299 296 293 293 292 292 296 304 310 312 313
223 222 225 223 220 221 223 223 222 221 219 219 219 219 219 217 215 214 214 215 218 220 222 222 221 218 219 223 228 232 236 239 241 240 239 238 236 237 238 240 242 243 245 248 250 252 255 257 259 260 261 260 258 253 250 249 249 253 257 261 265 269 272 276 278 280 283 285 287 289 292 293 296 297 297 294 292 291 288 287 296 306 307 305 309
223 220 222 221 218 219 221 222 222 221 219 218 219 219 219 218 216 214 213 214 217 219 221 222 223 221 219 220 224 229 233 237 240 241 242 242 239 237 237 239 241 241 242 245 247 249 252 254 257 259 260 262 262 260 256 252 250 252 255 259 263 266 271 275 277 280 283 285 288 291 293 294 296 295 292 290 288 285 280 282 293 303 299 299 306
228 226 226 224 219 218 219 220 221 221 220 219 220 220 219 219 217 214 213 214 216 219 221 222 223 223 222 221 222 226 229 234 237 240 242 243 242 240 239 238 239 240 241 242 244 246 248 251 254 257 260 264 265 265 263 260 259 259 259 261 264 268 273 279 281 284 286 288 290 292 292 293 293 290 288 286 284 278 275 281 293 298 295 298 304
231 229 227 225 222 220 219 218 218 220 222 221 220 220 219 219 218 215 214 214 216 218 220 221 221 223 224 224 224 225 227 230 234 237 239 241 241 241 241 240 241 242 242 243 243 244 245 249 252 255 259 264 266 266 266 264 264 266 267 266 266 270 277 282 283 285 286 286 288 288 289 290 289 287 285 282 277 274 274 281 291 292 293 298 300
233 232 227 223 223 221 219 218 217 218 221 223 221 220 220 219 218 217 215 215 215 217 219 221 221 222 224 225 226 226 227 228 230 233 235 237 238 239 239 240 242 245 248 248 248 247 246 248 251 253 257 262 264 265 266 265 266 269 270 268 269 274 281 283 282 283 283 283 283 284 285 287 285 284 282 278 277 276 275 279 286 289 294 297 294
236 233 227 224 223 222 219 218 218 218 220 222 220 219 219 219 218 218 216 215 215 215 218 221 222 222 224 225 226 228 229 230 230 231 233 235 237 237 237 240 244 249 252 254 255 256 256 255 255 255 256 259 261 263 263 264 266 268 268 270 272 277 279 280 280 280 280 280 281 282 283 284 283 282 279 277 278 276 274 279 285 292 297 296 291
237 229 226 224 224 222 219 218 219 218 219 220 219 218 219 219 218 218 217 216 215 215 216 219 221 222 224 225 227 229 231 233 233 233 233 235 237 237 238 242 247 250 253 255 257 260 262 262 262 260 259 259 260 260 260 261 263 264 266 269 272 273 274 275 276 276 276 277 278 278 278 277 277 277 276 278 278 275 276 281 286 293 298 295 289
237 227 225 225 225 224 221 218 218 217 217 219 219 218 217 218 218 218 217 216 216 215 216 217 220 222 223 226 228 229 231 233 236 237 237 237 238 238 240 244 248 250 252 255 258 261 263 264 264 263 263 263 262 261 261 261 261 263 265 268 269 270 270 270 270 270 271 273 273 273 273 272 271 270 273 277 279 279 281 282 286 293 298 293 288
238 228 226 227 227 226 223 219 218 217 217 218 218 217 217 217 217 218 217 216 216 215 215 216 218 220 223 225 227 228 230 232 234 237 239 239 239 239 240 242 245 248 250 253 256 259 261 263 264 265 265 265 265 265 264 264 264 265 267 268 267 266 264 264 265 266 267 268 269 271 272 273 271 270 270 270 273 276 278 279 284 291 291 286 285
239 232 228 227 226 224 222 219 218 218 217 218 218 217 216 216 217 218 218 217 216 216 215 215 216 218 221 223 226 227 228 229 231 235 238 240 240 239 239 240 242 245 248 251 255 259 262 264 266 266 265 265 265 264 264 263 264 266 267 268 265 263 261 261 262 263 265 267 270 273 277 279 280 280 278 273 270 271 273 276 281 283 280 277 280
237 235 232 229 225 222 219 217 217 217 217 218 219 219 217 217 217 218 218 217 217 217 216 216 216 217 219 221 224 227 228 228 230 233 235 237 239 239 240 241 243 246 249 252 255 258 260 262 263 263 264 265 265 265 266 265 265 265 264 263 262 263 264 265 266 268 271 275 279 282 286 288 289 288 284 278 271 269 271 274 275 274 271 272 278
233 236 235 228 221 217 215 215 215 215 216 217 218 218 218 218 219 218 218 217 217 217 217 217 217 217 218 219 221 224 227 227 229 231 233 235 238 240 240 241 243 244 247 250 253 254 256 257 258 259 261 263 264 266 266 264 264 263 261 260 262 265 268 271 272 274 278 282 285 288 290 290 287 283 280 277 272 269 269 268 266 264 264 268 275
233 235 232 223 216 213 213 214 213 213 214 216 217 218 218 219 220 221 220 218 218 217 217 218 218 219 219 219 218 220 222 225 228 231 233 235 238 239 240 240 241 242 246 250 252 252 252 253 254 256 258 261 262 262 262 261 262 262 262 262 263 264 267 269 271 274 278 283 287 289 290 287 282 279 277 273 269 265 263 260 258 256 256 262 271
236 232 223 215 212 211 212 212 212 212 214 216 218 220 221 222 223 223 223 222 221 219 218 218 219 220 220 220 220 219 220 224 229 234 237 239 241 242 243 245 246 247 251 255 254 251 250 250 252 254 257 258 259 260 260 260 260 261 262 262 262 263 264 266 269 274 280 286 288 289 287 283 277 273 269 264 261 258 255 256 258 254 252 260 271
226 221 213 208 208 208 209 210 211 213 214 216 218 221 223 225 226 225 224 224 224 223 223 223 223 223 223 224 225 226 228 231 232 233 235 238 241 244 247 250 251 253 257 258 253 249 249 250 251 253 255 256 258 259 260 260 261 262 263 263 264 264 265 266 270 276 281 285 285 283 282 276 267 260 256 255 253 249 247 248 251 251 253 262 269
210 208 206 204 204 204 205 206 210 213 215 215 217 220 223 225 226 226 226 226 225 225 225 226 226 226 225 226 228 230 233 235 233 232 234 236 240 244 247 248 250 253 255 252 248 247 247 248 249 251 252 254 256 258 260 262 263 265 266 267 267 267 268 271 272 273 277 280 277 272 270 266 255 250 251 249 242 238 241 245 249 253 258 262 256
202 199 198 199 200 201 201 202 205 210 214 215 217 221 223 224 225 226 225 225 225 225 225 225 226 227 227 229 230 230 232 233 234 235 235 237 239 243 246 247 248 249 247 244 242 243 243 245 249 250 251 253 255 257 259 262 263 265 267 269 272 273 275 277 276 273 275 278 275 269 265 259 252 248 246 241 236 237 245 251 255 261 263 255 242
203 198 196 197 200 203 204 204 205 208 212 214 217 221 223 224 224 223 221 220 221 222 222 223 224 226 227 229 230 232 234 236 237 236 235 234 235 238 241 242 242 242 241 239 238 239 240 244 249 252 254 256 258 259 260 261 263 264 265 267 272 276 278 280 277 273 272 273 272 270 265 257 249 242 238 236 240 246 249 248 252 260 258 244 233
215 204 198 196 198 201 204 209 212 214 214 214 216 221 224 224 223 221 219 216 216 216 216 217 220 222 225 227 228 231 233 234 236 235 232 229 228 229 232 234 234 233 234 234 236 241 244 247 251 255 258 262 263 263 264 264 265 266 266 268 269 269 269 269 266 263 264 267 266 263 259 252 244 239 238 240 241 238 235 233 238 249 250 239 228
230 222 209 199 196 198 203 209 215 218 218 215 216 221 225 224 223 221 219 215 211 209 209 211 214 217 220 222 224 225 227 227 227 226 224 224 225 226 226 228 228 229 231 234 237 242 246 249 254 258 263 266 267 267 268 269 270 271 270 267 262 258 258 258 256 255 258 261 262 261 260 253 243 235 234 234 227 220 223 230 235 241 244 239 230
233 234 235 220 209 207 211 214 216 218 218 217 218 221 226 227 222 219 218 215 209 206 206 207 209 212 214 217 219 221 222 223 222 222 222 223 225 226 227 229 230 231 235 239 243 247 250 253 258 265 269 271 271 270 270 270 271 272 267 259 255 255 255 256 255 254 255 255 256 257 254 246 233 221 217 214 210 211 220 231 231 227 234 241 239
229 230 237 235 226 222 221 222 221 219 218 218 217 219 230 236 223 212 209 208 205 205 206 206 208 210 211 213 214 216 218 221 222 223 224 221 220 222 226 230 233 234 236 240 244 248 251 255 263 272 278 278 276 274 272 269 269 268 262 255 255 257 257 255 255 255 254 252 251 248 243 235 223 214 211 210 209 213 224 235 229 218 229 242 244
230 232 231 229 228 227 227 227 226 221 218 218 217 219 231 235 209 198 200 201 199 200 203 205 208 212 212 212 212 214 216 219 219 220 221 220 219 220 221 225 231 236 239 242 244 246 252 261 271 276 277 277 276 273 269 266 262 259 256 254 254 254 252 250 250 248 246 245 242 236 230 225 218 213 212 211 213 223 242 250 236 220 222 232 237
59 45 232 225 224 224 223 220 217 214 213 214 216 224 234 227 201 195 202 203 200 201 202 204 208 212 212 212 213 214 216 219 220 221 223 223 223 224 225 227 229 229 230 232 235 240 253 265 270 268 266 266 268 266 263 261 260 259 259 258 255 250 245 243 243 242 239 238 235 230 229 229 224 219 216 218 225 239 249 239 225 220 222 225 230
81 85 113 198 208 209 209 208 205 205 207 200 188 198 212 207 197 196 200 201 200 200 200 202 208 211 211 213 214 215 216 218 218 219 219 216 214 217 221 224 225 225 228 233 238 246 257 260 258 255 255 257 259 257 255 256 259 261 262 257 250 245 243 243 244 244 242 241 241 242 245 242 227 217 218 226 235 241 231 213 212 219 226 227 227
95 104 116 137 160 172 181 187 189 188 183 167 158 162 172 176 179 185 190 192 193 192 191 194 198 199 200 202 203 204 207 211 212 213 213 211 210 211 213 217 221 225 229 234 238 246 255 254 247 242 242 242 243 243 245 251 256 259 259 254 247 244 246 250 251 248 244 243 242 239 229 216 209 215 229 238 236 225 212 209 214 221 225 228 228
95 107 115 120 129 137 143 150 157 160 153 145 147 157 167 171 172 173 174 174 174 175 176 176 174 173 175 181 186 189 195 200 203 206 207 207 209 211 212 215 219 222 224 228 233 241 246 245 241 239 237 235 233 233 235 239 244 248 253 255 254 252 249 245 239 237 238 236 225 209 202 206 214 224 234 233 221 212 213 217 217 219 224 227 229
79 96 106 112 116 120 124 129 135 141 143 141 140 146 156 163 163 160 158 155 154 156 158 157 157 160 163 170 181 189 190 189 189 189 190 191 194 199 203 208 214 219 224 230 234 234 233 234 238 242 241 237 235 234 235 235 234 231 232 234 236 236 231 223 214 212 215 214 207 201 203 214 220 216 210 211 214 214 215 214 212 215 224 227 229
69 82 90 93 96 100 106 113 118 122 129 133 134 136 143 148 149 149 150 149 148 150 151 151 153 158 162 167 178 185 182 178 178 178 178 180 181 184 189 195 202 210 216 219 218 218 220 224 228 232 232 230 229 231 234 235 228 217 209 208 209 212 214 212 203 193 189 190 191 188 187 195 202 200 195 199 205 207 211 214 212 213 222 229 230
64 67 72 75 78 81 84 86 92 101 113 120 122 123 126 130 133 135 139 141 142 145 147 147 149 154 158 163 172 174 172 172 173 172 173 175 174 174 176 179 184 190 194 197 198 201 205 210 214 217 220 219 214 209 207 202 195 190 189 189 188 187 189 190 185 179 179 181 181 180 180 184 191 198 199 197 199 205 213 216 214 216 225 232 230
68 64 61 62 68 76 81 82 84 88 94 100 105 108 111 114 117 119 122 126 128 131 134 137 142 147 151 155 158 157 159 162 162 159 160 163 162 160 161 163 167 172 174 175 177 179 180 184 190 196 198 192 180 176 177 177 175 174 173 173 173 172 173 176 178 180 183 185 185 185 186 188 193 201 206 208 209 212 215 215 215 220 229 233 231
76 74 68 63 63 69 76 82 86 88 90 90 90 91 94 97 102 106 109 112 117 122 127 132 137 143 146 148 148 147 148 150 148 146 146 149 148 146 145 145 146 149 150 150 150 149 147 148 150 151 153 156 160 165 170 173 175 177 178 179 180 179 179 179 181 184 188 191 193 194 196 198 200 204 209 213 215 214 214 214 215 218 225 231 237
80 84 82 77 73 72 75 78 80 83 87 88 87 87 89 92 94 97 99 102 106 114 122 129 136 142 144 143 143 143 141 139 138 137 139 141 141 138 136 136 137 139 142 143 144 143 141 139 140 143 145 148 152 157 160 164 168 172 174 175 179 181 181 181 183 188 193 197 201 205 206 206 207 210 214 218 220 219 217 217 218 222 228 235 241
94 95 98 98 97 94 92 90 89 89 90 92 95 97 99 101 102 104 106 107 110 116 124 130 132 135 138 140 143 143 138 133 130 128 127 129 130 129 128 128 130 134 142 147 149 148 147 145 144 147 149 150 152 155 157 160 164 167 170 173 177 180 183 185 187 191 195 198 203 207 209 210 212 216 217 219 221 222 223 226 232 238 242 246 251
109 104 105 108 108 109 110 111 111 109 108 108 110 109 108 107 109 113 118 123 126 130 135 138 139 140 142 143 143 142 139 135 132 128 124 124 125 124 124 126 128 130 134 138 140 142 146 149 151 153 154 156 158 161 163 166 169 171 174 178 182 187 193 196 198 203 210 216 220 225 228 228 228 230 233 236 239 242 246 250 254 258 262 264 267
117 112 110 108 107 111 116 118 117 116 116 117 118 119 118 117 118 119 123 127 129 130 133 137 140 142 143 142 140 139 136 132 127 124 122 122 123 124 126 128 129 130 132 134 137 140 144 148 153 158 161 163 166 169 171 173 175 176 182 191 201 211 219 224 228 235 239 236 236 242 249 253 254 256 259 261 263 267 270 272 274 275 275 275 274
Height
1522 1525 1528 1532 1535 1537 1539 1542 1545 1548 1550 1552 1554 1556 1558 1559 1561 1564 1565 1567 1569 1571 1572 1574 1575 1577 1578 1579 1580 1581 1583 1584 1585 1586 1587 1588 1589 1590 1591 1592 1593 1593 1594 1595 1595 1596 1596 1597 1598 1598 1598 1599 1599 1600 1600 1600 1600 1601 1601 1601 1601 1601 1601 1601 1600 1600 1601 1601 1601 1601 1601 1601 1600 1600 1599 1598 1598 1597 1595 1594 1593 1592 1590 1589 1587
1517 1519 1523 1527 1530 1533 1536 1538 1541 1544 1546 1548 1550 1552 1554 1556 1558 1560 1562 1564 1566 1567 1569 1571 1572 1574 1575 1577 1578 1579 1580 1582 1583 1584 1585 1586 1587 1588 1589 1589 1590 1591 1592 1593 1593 1594 1595 1595 1596 1596 1597 1597 1598 1598 1599 1599 1599 1599 1600 1600 1600 1600 1600 1600 1599 1598 1598 1599 1599 1599 1599 1599 1598 1598 1597 1596 1595 1595 1593 1592 1591 1590 1588 1587 1585
1514 1516 1518 1522 1525 1529 1532 1535 1537 1540 1542 1544 1546 1548 1550 1552 1554 1556 1558 1560 1562 1564 1566 1567 1569 1571 1572 1574 1575 1576 1577 1579 1580 1581 1582 1583 1584 1585 1586 1587 1588 1589 1590 1591 1591 1592 1593 1593 1594 1595 1595 1596 1596 1597 1597 1598 1598 1598 1598 1598 1598 1599 1599 1598 1598 1597 1596 1596 1597 1597 1597 1596 1596 1596 1595 1594 1594 1593 1592 1591 1590 1588 1587 1585 1584
1511 1513 1514 1517 1520 1524 1528 1530 1533 1536 1538 1540 1542 1544 1546 1549 1551 1552 1554 1557 1559 1561 1563 1564 1566 1567 1569 1570 1572 1573 1574 1576 1577 1578 1579 1580 1581 1582 1583 1584 1585 1586 1587 1588 1589 1590 1591 1591 1592 1593 1593 1594 1594 1595 1595 1596 1596 1596 1596 1596 1597 1597 1597 1597 1596 1596 1595 1594 1594 1595 1594 1594 1594 1594 1593 1592 1592 1591 1590 1589 1587 1586 1585 1583 1582
1508 1509 1510 1512 1516 1520 1523 1526 1529 1531 1533 1536 1538 1541 1543 1545 1547 1549 1551 1553 1555 1557 1559 1561 1563 1564 1565 1567 1568 1570 1571 1572 1574 1575 1576 1577 1578 1580 1581 1582 1583 1584 1585 1586 1587 1588 1589 1590 1590 1591 1591 1592 1592 1593 1593 1594 1594 1594 1595 1595 1595 1595 1595 1595 1595 1594 1594 1593 1592 1593 1593 1592 1591 1591 1591 1590 1589 1588 1587 1586 1585 1584 1582 1581 1580
1503 1505 1507 1508 1511 1514 1518 1521 1524 1526 1529 1532 1535 1537 1540 1542 1544 1545 1547 1549 1552 1554 1556 1557 1559 1560 1562 1563 1565 1566 1568 1569 1570 1571 1573 1574 1575 1577 1578 1579 1580 1581 1583 1584 1584 1586 1586 1587 1588 1589 1589 1589 1590 1590 1591 1591 1592 1592 1593 1593 1593 1594 1593 1594 1593 1593 1592 1592 1591 1590 1590 1590 1589 1589 1589 1588 1587 1585 1584 1583 1582 1582 1580 1578 1577
1499 1502 1503 1504 1506 1509 1512 1516 1519 1522 1525 1528 1531 1534 1536 1538 1540 1542 1544 1546 1548 1550 1552 1554 1556 1557 1559 1560 1561 1563 1564 1566 1567 1568 1570 1571 1572 1574 1575 1576 1578 1579 1580 1581 1582 1583 1584 1585 1586 1586 1587 1587 1588 1588 1589 1589 1590 1590 1591 1591 1591 1591 1591 1591 1592 1591 1591 1590 1589 1589 1588 1588 1587 1586 1586 1586 1585 1584 1582 1580 1579 1579 1579 1577 1575
1496 1498 1500 1501 1502 1504 1507 1511 1515 1518 1522 1525 1528 1530 1532 1534 1536 1538 1541 1543 1544 1547 1548 1550 1552 1554 1556 1557 1558 1560 1561 1562 1564 1565 1566 1568 1569 1570 1572 1573 1575 1576 1577 1579 1580 1581 1581 1582 1583 1583 1584 1585 1585 1586 1586 1587 1587 1588 1588 1589 1589 1589 1589 1589 1590 1589 1589 1588 1587 1587 1586 1585 1584 1584 1584 1584 1583 1582 1581 1579 1577 1576 1576 1575 1573
1493 1495 1497 1498 1498 1500 1504 1508 1512 1515 1518 1521 1524 1526 1528 1531 1533 1535 1537 1539 1541 1543 1545 1547 1549 1550 1552 1554 1555 1557 1558 1559 1560 1562 1563 1565 1566 1567 1568 1570 1571 1573 1574 1575 1577 1578 1579 1580 1580 1581 1581 1582 1583 1583 1584 1584 1585 1585 1586 1587 1587 1587 1587 1587 1587 1587 1587 1586 1585 1585 1584 1582 1582 1582 1582 1581 1581 1580 1579 1578 1576 1575 1574 1573 1572
1491 1492 1494 1494 1496 1499 1502 1505 1509 1512 1514 1517 1519 1522 1524 1527 1530 1531 1533 1535 1537 1540 1542 1543 1545 1547 1548 1550 1552 1553 1554 1556 1557 1559 1560 1562 1563 1565 1566 1567 1568 1570 1571 1572 1574 1575 1576 1577 1578 1578 1579 1579 1580 1581 1581 1582 1582 1583 1583 1584 1585 1585 1585 1585 1585 1585 1585 1584 1583 1583 1581 1580 1580 1580 1579 1579 1579 1578 1577 1576 1575 1573 1572 1571 1569
1491 1491 1492 1493 1495 1498 1500 1503 1506 1508 1510 1513 1515 1518 1520 1523 1525 1527 1529 1531 1534 1536 1539 1540 1541 1543 1545 1546 1548 1550 1551 1553 1554 1556 1558 1559 1561 1562 1563 1564 1566 1567 1568 1569 1570 1572 1573 1574 1575 1575 1576 1576 1577 1578 1578 1579 1580 1580 1581 1582 1582 1583 1583 1582 1582 1582 1582 1581 1580 1580 1579 1577 1577 1577 1577 1576 1576 1576 1575 1574 1573 1572 1571 1568 1566
1493 1492 1493 1494 1495 1496 1497 1500 1502 1505 1507 1509 1511 1514 1517 1519 1522 1524 1525 1528 1530 1533 1535 1536 1538 1539 1541 1543 1544 1546 1547 1549 1551 1553 1555 1556 1558 1560 1561 1562 1563 1564 1565 1566 1567 1569 1570 1571 1572 1573 1573 1574 1574 1575 1575 1576 1577 1578 1578 1579 1579 1580 1580 1580 1580 1579 1579 1579 1578 1577 1577 1575 1575 1575 1574 1574 1573 1573 1572 1572 1571 1570 1568 1567 1564
1495 1494 1494 1495 1494 1494 1496 1498 1500 1502 1503 1506 1509 1512 1515 1516 1518 1519 1521 1523 1526 1528 1531 1533 1535 1536 1538 1539 1541 1542 1544 1546 1548 1550 1552 1554 1555 1557 1558 1560 1561 1562 1563 1563 1564 1566 1567 1568 1569 1570 1571 1571 1572 1572 1573 1574 1574 1575 1576 1576 1576 1577 1577 1577 1577 1577 1577 1576 1575 1575 1574 1574 1573 1572 1573 1572 1571 1570 1569 1569 1568 1567 1566 1565 1563
1495 1495 1495 1494 1493 1494 1495 1496 1497 1499 1501 1504 1507 1509 1511 1512 1514 1516 1518 1520 1522 1524 1526 1529 1531 1533 1534 1536 1537 1539 1541 1543 1545 1547 1549 1551 1552 1554 1555 1557 1558 1559 1560 1560 1561 1562 1564 1565 1566 1567 1568 1569 1569 1570 1570 1571 1572 1572 1572 1573 1573 1573 1574 1574 1574 1574 1574 1574 1573 1572 1572 1572 1571 1570 1570 1570 1568 1567 1566 1566 1565 1564 1563 1563 1561
1490 1493 1494 1495 1494 1493 1493 1494 1495 1497 1500 1502 1503 1505 1507 1509 1511 1513 1515 1517 1518 1520 1522 1525 1527 1530 1531 1533 1535 1536 1537 1540 1542 1544 1546 1548 1549 1551 1552 1554 1555 1556 1557 1558 1558 1560 1561 1562 1563 1564 1565 1565 1566 1567 1568 1568 1569 1569 1569 1569 1569 1570 1570 1570 1571 1571 1571 1571 1570 1569 1569 1569 1568 1567 1568 1567 1566 1565 1564 1563 1563 1562 1561 1560 1559
1483 1485 1486 1488 1490 1489 1489 1490 1492 1494 1497 1499 1500 1501 1503 1505 1507 1510 1512 1514 1516 1517 1519 1521 1523 1526 1528 1530 1531 1533 1534 1536 1538 1541 1543 1545 1546 1548 1549 1551 1552 1553 1554 1555 1555 1556 1558 1559 1559 1560 1561 1562 1563 1564 1565 1566 1566 1566 1566 1566 1566 1566 1566 1567 1568 1568 1568 1568 1567 1566 1566 1566 1566 1565 1565 1564 1563 1563 1562 1561 1561 1560 1559 1558 1557
1476 1477 1476 1478 1481 1482 1483 1485 1488 1490 1493 1494 1495 1496 1498 1501 1504 1507 1510 1511 1513 1514 1516 1518 1520 1523 1525 1526 1528 1529 1531 1533 1535 1537 1539 1541 1543 1545 1546 1548 1549 1550 1551 1552 1552 1553 1554 1555 1556 1556 1557 1557 1559 1560 1562 1563 1563 1563 1562 1563 1563 1563 1562 1563 1564 1565 1565 1564 1564 1563 1563 1563 1562 1562 1562 1561 1561 1561 1560 1559 1559 1559 1558 1556 1555
1471 1472 1472 1472 1474 1476 1478 1480 1483 1486 1488 1489 1490 1492 1494 1497 1500 1503 1506 1508 1509 1511 1513 1515 1517 1519 1521 1523 1525 1526 1528 1530 1531 1534 1535 1538 1539 1541 1543 1544 1546 1546 1547 1548 1549 1550 1551 1552 1552 1553 1553 1554 1555 1556 1558 1559 1559 1559 1559 1560 1560 1559 1559 1560 1561 1561 1561 1561 1560 1559 1559 1559 1559 1559 1559 1559 1559 1559 1557 1557 1557 1557 1556 1554 1553
1465 1466 1467 1469 1471 1473 1474 1476 1478 1481 1483 1484 1486 1489 1491 1493 1497 1500 1502 1504 1507 1509 1510 1512 1514 1516 1518 1520 1522 1523 1525 1527 1528 1530 1532 1534 1536 1537 1539 1541 1542 1543 1544 1545 1546 1547 1547 1548 1549 1549 1550 1550 1551 1553 1554 1555 1555 1555 1556 1557 1556 1555 1556 1557 1557 1557 1557 1557 1556 1556 1556 1556 1556 1556 1556 1556 1556 1556 1555 1555 1555 1555 1554 1553 1553
1461 1463 1465 1468 1469 1470 1471 1472 1473 1475 1478 1480 1483 1485 1488 1490 1493 1496 1499 1501 1504 1506 1507 1509 1511 1512 1514 1516 1518 1520 1522 1523 1525 1527 1529 1530 1532 1534 1535 1536 1538 1539 1540 1541 1542 1543 1544 1544 1545 1546 1547 1547 1548 1549 1550 1551 1551 1552 1553 1552 1552 1552 1553 1554 1554 1554 1554 1553 1553 1553 1552 1552 1553 1553 1553 1553 1553 1553 1553 1553 1554 1554 1553 1552 1552
1460 1461 1463 1465 1466 1466 1467 1468 1469 1471 1474 1477 1480 1482 1484 1486 1489 1491 1495 1498 1500 1502 1504 1505 1507 1508 1510 1512 1514 1515 1517 1520 1522 1524 1525 1527 1529 1530 1531 1532 1534 1535 1536 1537 1537 1538 1539 1540 1541 1543 1543 1544 1545 1546 1546 1547 1548 1548 1548 1548 1548 1549 1550 1550 1550 1551 1550 1550 1549 1549 1549 1549 1549 1549 1550 1551 1551 1551 1551 1552 1552 1552 1552 1551 1551
1457 1457 1459 1460 1462 1463 1463 1464 1465 1468 1470 1473 1476 1479 1481 1483 1485 1488 1491 1493 1496 1498 1500 1501 1503 1504 1506 1508 1509 1511 1513 1515 1517 1519 1522 1523 1525 1527 1528 1528 1530 1532 1532 1532 1533 1534 1535 1536 1537 1538 1540 1540 1542 1543 1543 1544 1544 1544 1544 1544 1545 1546 1546 1546 1547 1547 1547 1546 1546 1546 1546 1547 1547 1547 1548 1548 1549 1549 1549 1550 1551 1551 1550 1550 1549
1452 1453 1454 1455 1457 1458 1459 1460 1462 1464 1466 1468 1471 1474 1477 1480 1482 1484 1486 1489 1492 1494 1496 1498 1499 1500 1502 1503 1505 1507 1509 1511 1513 1515 1517 1519 1521 1523 1524 1525 1526 1528 1528 1528 1529 1529 1530 1532 1533 1534 1535 1536 1537 1538 1539 1540 1540 1540 1541 1541 1542 1542 1542 1542 1543 1543 1543 1543 1543 1543 1543 1544 1545 1546 1546 1547 1548 1548 1548 1548 1549 1549 1548 1548 1547
1447 1447 1448 1450 1451 1453 1455 1456 1458 1460 1462 1464 1467 1470 1473 1476 1479 1481 1482 1485 1487 1489 1491 1493 1495 1496 1497 1499 1501 1503 1505 1507 1509 1511 1513 1515 1516 1518 1519 1521 1522 1523 1523 1524 1524 1525 1526 1528 1529 1530 1531 1532 1533 1534 1535 1535 1535 1536 1537 1538 1538 1538 1538 1538 1539 1539 1540 1540 1539 1539 1540 1541 1543 1544 1545 1546 1547 1547 1547 1547 1547 1547 1547 1546 1546
1440 1441 1442 1444 1445 1448 1450 1452 1453 1456 1458 1460 1463 1466 1469 1472 1475 1477 1478 1480 1482 1484 1486 1489 1490 1492 1493 1494 1496 1498 1500 1502 1504 1506 1508 1510 1512 1513 1515 1516 1517 1518 1519 1520 1521 1522 1523 1524 1525 1526 1527 1528 1529 1529 1530 1531 1531 1532 1533 1534 1534 1534 1534 1535 1536 1536 1536 1536 1537 1537 1537 1539 1540 1541 1543 1544 1545 1545 1544 1545 1545 1545 1544 1544 1544
1434 1435 1436 1438 1440 1443 1445 1447 1449 1452 1454 1457 1459 1462 1465 1468 1470 1472 1474 1476 1478 1479 1481 1484 1485 1487 1489 1490 1492 1494 1496 1498 1500 1501 1504 1505 1507 1509 1510 1511 1513 1514 1515 1517 1518 1519 1520 1521 1521 1522 1523 1524 1525 1525 1526 1526 1527 1528 1529 1530 1530 1531 1531 1532 1533 1533 1533 1534 1535 1535 1535 1536 1538 1539 1539 1540 1541 1541 1541 1542 1542 1542 1542 1541 1541
1428 1429 1431 1433 1436 1438 1440 1443 1445 1448 1451 1453 1456 1459 1461 1464 1466 1468 1469 1471 1473 1474 1477 1479 1480 1482 1484 1486 1488 1490 1492 1493 1495 1497 1499 1501 1502 1504 1505 1507 1509 1511 1512 1513 1514 1515 1516 1517 1518 1518 1520 1521 1521 1521 1522 1523 1524 1524 1525 1527 1527 1528 1529 1530 1530 1530 1531 1531 1532 1532 1533 1534 1535 1535 1536 1537 1537 1538 1538 1539 1539 1538 1538 1538 1537
1423 1425 1426 1429 1431 1434 1436 1439 1441 1445 1448 1451 1453 1455 1458 1460 1462 1462 1463 1465 1466 1468 1470 1472 1474 1476 1478 1481 1484 1486 1488 1489 1490 1491 1493 1495 1496 1499 1501 1503 1505 1507 1508 1509 1511 1512 1512 1513 1514 1515 1516 1517 1518 1518 1519 1519 1520 1521 1522 1523 1524 1525 1526 1527 1527 1527 1528 1528 1528 1529 1530 1530 1531 1532 1533 1533 1534 1534 1534 1535 1535 1535 1534 1534 1535
1419 1420 1422 1425 1427 1430 1433 1436 1438 1442 1445 1448 1450 1452 1454 1456 1457 1458 1460 1461 1462 1464 1465 1466 1468 1471 1474 1477 1479 1481 1482 1483 1484 1486 1488 1490 1493 1495 1497 1499 1501 1503 1505 1506 1508 1508 1509 1510 1511 1512 1513 1513 1514 1514 1515 1516 1517 1518 1519 1520 1521 1522 1523 1523 1523 1524 1525 1525 1525 1525 1525 1526 1527 1527 1528 1528 1528 1529 1529 1531 1532 1531 1532 1533 1534
1415 1416 1418 1420 1423 1426 1429 1432 1435 1438 1441 1444 1446 1449 1451 1452 1453 1455 1456 1458 1459 1461 1462 1464 1466 1468 1471 1473 1474 1476 1477 1479 1481 1483 1486 1488 1490 1492 1494 1496 1498 1500 1502 1504 1504 1505 1505 1506 1507 1508 1509 1509 1510 1510 1511 1512 1513 1514 1515 1516 1518 1519 1519 1520 1520 1521 1521 1521 1521 1521 1521 1521 1521 1522 1522 1522 1523 1524 1526 1528 1529 1529 1529 1530 1531
1412 1413 1415 1417 1419 1422 1425 1429 1432 1434 1437 1440 1443 1445 1446 1448 1450 1451 1452 1454 1456 1459 1461 1464 1466 1468 1469 1470 1472 1474 1476 1478 1480 1482 1483 1485 1487 1489 1491 1493 1495 1497 1499 1500 1500 1501 1502 1502 1503 1504 1505 1506 1506 1507 1508 1509 1510 1510 1511 1513 1514 1515 1516 1516 1516 1517 1518 1518 1517 1517 1517 1517 1517 1518 1518 1519 1521 1523 1524 1526 1527 1527 1527 1527 1527
1410 1410 1411 1412 1414 1417 1420 1424 1428 1431 1434 1437 1440 1442 1443 1444 1446 1447 1449 1451 1454 1457 1460 1463 1465 1467 1468 1470 1471 1473 1475 1477 1479 1480 1481 1483 1485 1486 1488 1490 1492 1494 1495 1496 1497 1497 1498 1499 1499 1500 1501 1502 1502 1503 1504 1505 1506 1507 1508 1509 1510 1511 1512 1512 1513 1514 1514 1514 1515 1515 1515 1516 1516 1517 1518 1519 1520 1521 1522 1523 1524 1525 1525 1524 1523
1408 1407 1407 1408 1410 1412 1415 1418 1422 1426 1430 1433 1435 1437 1438 1440 1442 1444 1446 1450 1453 1457 1460 1462 1465 1467 1468 1470 1471 1472 1474 1475 1477 1478 1479 1481 1482 1484 1485 1487 1489 1490 1491 1492 1493 1494 1495 1495 1496 1497 1498 1498 1499 1500 1501 1502 1503 1504 1505 1506 1506 1507 1508 1509 1510 1510 1511 1512 1513 1513 1514 1514 1515 1516 1517 1517 1517 1517 1517 1518 1520 1521 1522 1522 1521
1404 1403 1404 1404 1406 1408 1412 1415 1417 1420 1423 1428 1431 1432 1435 1438 1440 1442 1445 1448 1451 1454 1458 1461 1464 1466 1468 1469 1470 1471 1472 1473 1474 1476 1477 1479 1480 1482 1483 1484 1485 1486 1487 1488 1489 1490 1491 1492 1493 1494 1495 1495 1496 1498 1498 1499 1501 1501 1502 1503 1504 1504 1505 1506 1507 1508 1508 1509 1510 1510 1511 1512 1513 1513 1514 1513 1513 1513 1513 1514 1516 1518 1520 1522 1521
1400 1400 1399 1399 1402 1406 1410 1413 1416 1418 1420 1423 1426 1430 1433 1436 1438 1441 1444 1447 1450 1453 1456 1460 1463 1465 1466 1467 1468 1469 1470 1471 1472 1474 1475 1477 1478 1479 1480 1481 1482 1483 1484 1485 1486 1487 1488 1490 1491 1492 1493 1493 1494 1495 1495 1497 1498 1499 1499 1500 1501 1502 1503 1504 1504 1505 1506 1507 1508 1508 1509 1510 1510 1511 1512 1512 1513 1513 1514 1514 1515 1516 1519 1521 1520
1400 1401 1402 1403 1406 1408 1410 1412 1415 1417 1420 1421 1423 1427 1431 1435 1436 1438 1442 1447 1451 1454 1456 1458 1460 1462 1463 1464 1465 1466 1468 1469 1470 1472 1473 1475 1476 1476 1477 1478 1478 1479 1480 1482 1483 1484 1486 1487 1488 1489 1490 1491 1491 1492 1493 1494 1495 1496 1497 1498 1499 1500 1501 1502 1502 1504 1505 1505 1506 1506 1507 1507 1508 1509 1511 1511 1512 1513 1513 1513 1513 1514 1518 1520 1519
1401 1402 1405 1409 1411 1411 1411 1413 1414 1416 1418 1420 1421 1424 1431 1435 1434 1435 1440 1446 1450 1452 1454 1455 1457 1459 1460 1461 1462 1464 1465 1467 1468 1470 1471 1472 1473 1473 1474 1475 1476 1476 1477 1478 1480 1481 1483 1484 1485 1486 1487 1487 1488 1489 1490 1491 1492 1493 1494 1495 1496 1498 1499 1499 1500 1501 1502 1502 1503 1503 1504 1505 1506 1508 1509 1509 1510 1511 1511 1510 1509 1510 1514 1517 1518
1402 1402 1404 1407 1410 1410 1411 1413 1414 1413 1414 1417 1418 1420 1426 1432 1433 1436 1443 1447 1447 1449 1453 1454 1455 1456 1456 1458 1460 1461 1463 1464 1465 1466 1468 1469 1470 1471 1471 1472 1473 1473 1474 1475 1477 1478 1480 1481 1482 1483 1484 1484 1485 1486 1487 1488 1490 1490 1491 1492 1493 1494 1495 1496 1497 1497 1498 1499 1499 1499 1500 1502 1503 1505 1506 1507 1508 1508 1509 1508 1507 1507 1508 1510 1513
1404 1404 1404 1404 1406 1409 1410 1411 1412 1412 1412 1413 1415 1418 1424 1432 1438 1443 1448 1449 1447 1447 1450 1451 1452 1453 1455 1456 1458 1459 1460 1461 1462 1464 1465 1467 1468 1468 1468 1469 1469 1470 1470 1472 1474 1475 1477 1478 1479 1480 1480 1481 1482 1483 1484 1486 1486 1487 1487 1489 1489 1489 1489 1491 1493 1493 1494 1496 1497 1497 1498 1500 1501 1502 1504 1505 1506 1505 1504 1504 1505 1504 1504 1506 1508
1405 1406 1405 1404 1405 1408 1408 1408 1411 1413 1413 1412 1414 1418 1425 1434 1439 1442 1444 1446 1445 1444 1445 1447 1450 1453 1454 1454 1455 1455 1456 1458 1459 1460 1462 1463 1464 1464 1465 1465 1465 1466 1467 1468 1470 1471 1473 1475 1476 1476 1477 1478 1479 1480 1481 1482 1483 1484 1484 1485 1485 1484 1485 1488 1490 1491 1492 1494 1494 1495 1496 1497 1498 1500 1501 1503 1504 1503 1502 1502 1503 1504 1504 1505 1507
1405 1405 1406 1405 1405 1406 1406 1406 1409 1412 1412 1412 1414 1417 1425 1434 1438 1438 1439 1441 1442 1442 1443 1446 1448 1451 1452 1452 1452 1453 1453 1454 1455 1457 1458 1459 1459 1460 1460 1461 1461 1462 1463 1464 1466 1467 1469 1471 1472 1473 1474 1475 1476 1477 1478 1480 1481 1481 1481 1481 1482 1482 1483 1485 1486 1488 1490 1491 1492 1493 1494 1495 1496 1497 1499 1500 1501 1502 1502 1503 1505 1505 1504 1505 1507
1409 1408 1407 1406 1405 1405 1405 1406 1408 1410 1413 1415 1414 1416 1424 1434 1439 1437 1436 1438 1439 1439 1442 1444 1446 1448 1450 1451 1451 1451 1451 1452 1453 1453 1454 1455 1456 1456 1456 1457 1457 1458 1459 1461 1462 1464 1466 1468 1469 1470 1471 1472 1473 1474 1475 1476 1477 1478 1478 1479 1480 1480 1481 1482 1483 1485 1487 1489 1490 1491 1493 1494 1495 1496 1497 1498 1500 1501 1502 1503 1505 1505 1505 1505 1507
1414 1413 1411 1410 1407 1405 1405 1406 1407 1409 1412 1414 1414 1416 1423 1432 1435 1433 1432 1434 1435 1436 1438 1441 1443 1446 1448 1449 1449 1449 1449 1450 1451 1451 1452 1452 1453 1453 1454 1455 1456 1457 1458 1460 1461 1463 1465 1466 1468 1469 1469 1470 1471 1471 1471 1472 1473 1474 1475 1476 1477 1477 1478 1480 1482 1484 1486 1487 1489 1490 1492 1493 1494 1495 1496 1497 1499 1500 1502 1503 1503 1503 1503 1503 1504
1418 1416 1415 1413 1411 1410 1409 1410 1411 1411 1412 1412 1413 1416 1421 1425 1426 1426 1427 1430 1432 1434 1436 1439 1442 1445 1446 1448 1448 1449 1449 1449 1450 1450 1451 1451 1451 1451 1452 1453 1454 1456 1457 1459 1460 1462 1463 1464 1466 1467 1467 1468 1469 1469 1470 1471 1472 1473 1473 1474 1475 1476 1477 1479 1481 1483 1484 1486 1487 1488 1490 1492 1492 1494 1495 1495 1497 1498 1500 1501 1501 1500 1500 1501 1501
1419 1418 1416 1415 1415 1415 1415 1416 1417 1417 1417 1417 1418 1419 1419 1419 1419 1422 1425 1428 1431 1433 1436 1439 1442 1445 1446 1447 1448 1448 1448 1448 1448 1449 1449 1450 1450 1450 1451 1452 1453 1454 1456 1457 1458 1460 1461 1463 1464 1465 1466 1467 1468 1469 1470 1471 1472 1473 1474 1475 1475 1476 1478 1480 1481 1482 1483 1484 1485 1486 1488 1489 1490 1492 1493 1493 1494 1495 1497 1497 1497 1498 1498 1499 1500
1419 1417 1417 1417 1417 1417 1417 1418 1419 1419 1420 1421 1422 1423 1422 1421 1420 1422 1424 1427 1430 1433 1437 1440 1443 1444 1446 1447 1448 1448 1449 1449 1449 1448 1448 1449 1449 1450 1451 1451 1453 1454 1455 1456 1458 1459 1461 1463 1464 1465 1467 1468 1469 1470 1471 1472 1473 1474 1475 1476 1475 1476 1478 1480 1481 1482 1483 1484 1485 1485 1486 1487 1489 1490 1491 1491 1492 1493 1494 1495 1496 1496 1497 1498 1498
1419 1417 1416 1417 1418 1419 1419 1419 1419 1420 1420 1421 1423 1424 1424 1424 1423 1424 1426 1428 1431 1434 1437 1440 1442 1444 1445 1446 1447 1449 1450 1450 1450 1449 1449 1449 1449 1450 1451 1452 1453 1454 1455 1457 1458 1460 1461 1463 1464 1465 1467 1468 1469 1470 1472 1473 1474 1475 1475 1475 1476 1476 1478 1480 1481 1482 1483 1484 1485 1485 1486 1487 1488 1489 1490 1491 1491 1492 1492 1493 1494 1494 1495 1495 1496
1420 1418 1417 1418 1419 1421 1421 1421 1421 1421 1421 1421 1422 1424 1425 1426 1427 1428 1429 1430 1432 1435 1437 1440 1442 1443 1445 1446 1448 1450 1452 1451 1451 1450 1449 1449 1450 1450 1451 1452 1453 1455 1456 1457 1459 1461 1462 1463 1464 1466 1467 1468 1469 1471 1472 1473 1474 1474 1475 1475 1476 1477 1478 1480 1481 1482 1483 1484 1484 1485 1486 1486 1487 1488 1489 1490 1490 1491 1491 1491 1492 1492 1492 1493 1493
1422 1421 1420 1420 1421 1423 1424 1424 1424 1424 1424 1425 1425 1426 1427 1428 1429 1429 1430 1432 1434 1436 1438 1440 1442 1443 1445 1447 1449 1451 1452 1452 1451 1451 1450 1450 1451 1451 1452 1453 1454 1455 1457 1458 1460 1462 1463 1464 1466 1467 1469 1470 1471 1472 1472 1473 1474 1475 1475 1476 1477 1478 1479 1480 1481 1482 1483 1484 1484 1485 1485 1486 1486 1487 1488 1488 1489 1489 1489 1490 1490 1490 1490 1490 1490
1424 1423 1423 1423 1423 1424 1425 1426 1425 1425 1426 1428 1429 1429 1429 1430 1430 1431 1432 1434 1436 1437 1439 1441 1442 1444 1445 1447 1449 1450 1451 1451 1451 1451 1451 1451 1452 1452 1453 1454 1455 1456 1457 1459 1461 1463 1464 1466 1467 1469 1470 1471 1472 1473 1474 1475 1475 1476 1476 1477 1477 1478 1479 1480 1481 1482 1483 1483 1484 1484 1484 1485 1485 1485 1486 1486 1487 1487 1487 1487 1487 1487 1487 1487 1487
1425 1425 1425 1425 1425 1426 1427 1427 1426 1426 1427 1428 1430 1430 1431 1431 1432 1433 1434 1435 1437 1438 1440 1441 1443 1444 1446 1447 1448 1448 1448 1449 1450 1451 1451 1452 1453 1454 1455 1455 1456 1457 1459 1460 1462 1463 1465 1467 1468 1470 1471 1472 1473 1474 1475 1475 1476 1477 1477 1478 1478 1479 1479 1480 1481 1481 1482 1482 1483 1482 1483 1483 1483 1483 1484 1484 1485 1484 1484 1484 1484 1484 1484 1484 1483